SV7JLF-3 Weather Reports


time (UTC)temp
F
wind
direction
speed
knots
gust
knots
rain 1hr
in
rain 24hr
in
rain mn
in
humidity
%
barometer
mb
20260906064053 76 331 4.3 0.0 0.00 0.00 0.00 65 1018.7
20260906064004 76 335 3.5 6.1 0.00 0.00 0.00 64 1015.9
20260906063545 75 311 3.5 0.0 0.00 0.00 0.00 64 1018.6
20260906063051 75 340 2.6 0.0 0.00 0.00 0.00 66 1018.5
20260906063004 75 334 2.6 4.3 0.00 0.00 0.00 66 1015.9
20260906062521 75 340 2.6 0.0 0.00 0.00 0.00 66 1018.5
20260906062057 74 14 3.5 0.0 0.00 0.00 0.00 66 1018.4
20260906061553 74 11 3.5 0.0 0.00 0.00 0.00 67 1018.5
20260906061513 74 355 3.5 0.0 0.00 0.00 0.00 67 1018.4
20260906061033 74 5 2.6 0.0 0.00 0.00 0.00 67 1018.4
20260906060530 73 348 2.6 0.0 0.00 0.00 0.00 67 1018.3
20260906060047 72 355 2.6 0.0 0.00 0.00 0.00 68 1018.4
20260906060004 72 355 2.6 0.0 0.00 0.00 0.00 68 1018.1
20260906055534 72 342 2.6 0.0 0.00 0.00 0.00 69 1018.3
20260906055046 71 335 2.6 0.0 0.00 0.00 0.00 69 1018.1
20260906055003 71 335 1.7 2.6 0.00 0.00 0.00 69 1015.9
20260906054613 70 321 2.6 0.0 0.00 0.00 0.00 69 1018.1
20260906054542 71 321 2.6 0.0 0.00 0.00 0.00 69 1018.3
20260906054035 71 338 3.5 0.0 0.00 0.00 0.00 70 1018.1
20260906054004 71 338 3.5 4.3 0.00 0.00 0.00 70 1015.9
20260906053530 71 334 3.5 0.0 0.00 0.00 0.00 71 1018.1
20260906053111 70 344 3.5 0.0 0.00 0.00 0.00 70 1018.0
20260906053027 71 343 3.5 0.0 0.00 0.00 0.00 70 1018.3
20260906053004 71 328 4.3 4.3 0.00 0.00 0.00 70 1015.9
20260906052545 71 313 4.3 0.0 0.00 0.00 0.00 70 1018.2
20260906052004 71 353 3.5 5.2 0.00 0.00 0.00 69 1015.9
20260906051624 71 323 5.2 0.0 0.00 0.00 0.00 67 1018.0
20260906051524 71 314 5.2 0.0 0.00 0.00 0.00 67 1018.2
20260906050045 71 264 6.1 0.0 0.00 0.00 0.00 67 1017.9
20260906050004 71 264 7.8 8.7 0.00 0.00 0.00 67 1015.9
20260906050002 70 257 6.1 0.0 0.00 0.00 0.00 67 1017.6
20260906045604 70 278 6.1 0.0 0.00 0.00 0.00 68 1017.7
20260906044624 68 259 6.1 0.0 0.00 0.00 0.00 70 1017.7
20260906044526 69 269 6.1 0.0 0.00 0.00 0.00 70 1017.8
20260906043048 64 241 2.6 0.0 0.00 0.00 0.00 79 1017.7
20260906043009 63 240 2.6 0.0 0.00 0.00 0.00 79 1017.5
20260906043003 64 240 2.6 4.3 0.00 0.00 0.00 79 1015.9
20260906042528 64 243 2.6 0.0 0.00 0.00 0.00 80 1017.6
20260906042043 64 244 1.7 0.0 0.00 0.00 0.00 80 1017.6
20260906042003 63 271 1.7 2.6 0.00 0.00 0.00 81 1015.9
20260906041639 63 290 0.9 0.0 0.00 0.00 0.00 80 1017.4
20260906041554 64 290 0.9 0.0 0.00 0.00 0.00 80 1017.4
20260906041020 64 46 0.9 0.0 0.00 0.00 0.00 80 1017.5
20260906040606 64 46 0.9 0.0 0.00 0.00 0.00 80 1017.6
20260906040107 63 46 0.9 0.0 0.00 0.00 0.00 80 1017.3
20260906040004 64 46 0.0 2.6 0.00 0.00 0.00 80 1015.9
20260906035523 64 46 1.7 0.0 0.00 0.00 0.00 80 1017.2
20260906035102 64 45 0.9 0.0 0.00 0.00 0.00 79 1017.3
20260906035004 64 45 1.7 2.6 0.00 0.00 0.00 79 1015.9
20260906034606 64 45 1.7 0.0 0.00 0.00 0.00 78 1017.1
20260906034044 64 40 1.7 0.0 0.00 0.00 0.00 77 1017.2
20260906033127 64 61 0.9 0.0 0.00 0.00 0.00 75 1017.1
20260906033027 65 61 0.9 0.0 0.00 0.00 0.00 74 1017.3
20260906033004 65 41 0.0 2.6 0.00 0.00 0.00 74 1015.9
20260906032543 65 273 1.7 0.0 0.00 0.00 0.00 74 1017.1
20260906032004 65 273 2.6 2.6 0.00 0.00 0.00 74 1015.9
20260906031550 65 281 1.7 0.0 0.00 0.00 0.00 74 1017.1
20260906031512 65 283 1.7 0.0 0.00 0.00 0.00 74 1017.0
20260906031101 65 315 2.6 0.0 0.00 0.00 0.00 73 1017.2
20260906031004 65 315 1.7 2.6 0.00 0.00 0.00 73 1015.9
20260906030548 66 315 1.7 0.0 0.00 0.00 0.00 72 1017.1
20260906030113 65 313 2.6 0.0 0.00 0.00 0.00 71 1017.0
20260906030004 65 210 1.7 2.6 0.00 0.00 0.00 71 1015.9
20260906025521 66 210 3.5 0.0 0.00 0.00 0.00 71 1016.9
20260906025035 66 205 3.5 0.0 0.00 0.00 0.00 70 1016.9
20260906025004 66 205 3.5 4.3 0.00 0.00 0.00 70 1015.9
20260906024624 65 200 3.5 0.0 0.00 0.00 0.00 70 1016.8
20260906024525 66 199 3.5 0.0 0.00 0.00 0.00 70 1017.0
20260906024042 66 190 3.5 0.0 0.00 0.00 0.00 70 1016.9
20260906024004 66 187 2.6 4.3 0.00 0.00 0.00 70 1015.9
20260906023046 66 218 1.7 0.0 0.00 0.00 0.00 69 1017.1
20260906023010 66 218 1.7 0.0 0.00 0.00 0.00 69 1016.9
20260906023003 66 220 1.7 2.6 0.00 0.00 0.00 69 1015.9
20260906022004 66 223 0.9 2.6 0.00 0.00 0.00 70 1015.9
20260906021555 66 223 0.9 0.0 0.00 0.00 0.00 70 1016.8
20260906021541 66 217 0.9 0.0 0.00 0.00 0.00 70 1016.9
20260906021030 66 216 0.9 0.0 0.00 0.00 0.00 70 1016.9
20260906021003 66 216 0.9 4.3 0.00 0.00 0.00 70 1015.9
20260906020546 66 206 1.7 0.0 0.00 0.00 0.00 70 1017.1
20260906020054 66 215 3.5 0.0 0.00 0.00 0.00 70 1016.8
20260906020010 65 217 3.5 0.0 0.00 0.00 0.00 70 1016.7
20260906020004 66 213 2.6 4.3 0.00 0.00 0.00 70 1015.9
20260906015543 66 217 3.5 0.0 0.00 0.00 0.00 71 1016.9
20260906015034 65 225 2.6 0.0 0.00 0.00 0.00 72 1017.0
20260906014549 65 224 2.6 0.0 0.00 0.00 0.00 72 1017.1
20260906014519 65 224 2.6 0.0 0.00 0.00 0.00 72 1016.9
20260906014030 65 224 3.5 0.0 0.00 0.00 0.00 72 1016.9
20260906013100 65 224 2.6 0.0 0.00 0.00 0.00 73 1016.6
20260906013038 65 224 2.6 0.0 0.00 0.00 0.00 73 1016.8
20260906013004 65 224 2.6 2.6 0.00 0.00 0.00 73 1015.9
20260906012533 66 181 2.6 0.0 0.00 0.00 0.00 73 1016.9
20260906012050 66 180 2.6 0.0 0.00 0.00 0.00 72 1017.0
20260906012005 65 180 2.6 2.6 0.00 0.00 0.00 72 1015.9
20260906011607 65 175 2.6 0.0 0.00 0.00 0.00 72 1016.8
20260906011535 66 175 2.6 0.0 0.00 0.00 0.00 72 1016.9
20260906011029 66 173 2.6 0.0 0.00 0.00 0.00 72 1016.8
20260906011004 66 173 3.5 4.3 0.00 0.00 0.00 72 1015.9
20260906010606 66 157 0.9 0.0 0.00 0.00 0.00 72 1016.8
20260906010055 66 156 0.0 0.0 0.00 0.00 0.00 72 1016.8
20260906010006 65 156 0.0 0.0 0.00 0.00 0.00 72 1016.7
20260906005025 66 156 0.9 0.0 0.00 0.00 0.00 72 1016.9
20260906005004 66 156 0.0 1.7 0.00 0.00 0.00 73 1015.9
20260906004547 66 156 1.7 0.0 0.00 0.00 0.00 73 1016.7
20260906004029 67 156 0.9 0.0 0.00 0.00 0.00 72 1016.9
20260906003547 67 156 0.0 0.0 0.00 0.00 0.00 72 1017.0
20260906003111 67 156 0.0 0.0 0.00 0.00 0.00 72 1017.0
20260906003028 67 156 0.0 0.0 0.00 0.00 0.00 72 1017.1
20260906003005 67 156 0.0 1.7 0.00 0.00 0.00 72 1015.9
20260906002528 67 156 0.0 0.0 0.00 0.00 0.00 72 1017.0
20260906002042 68 156 0.9 0.0 0.00 0.00 0.00 71 1017.1
20260906002005 68 156 0.9 2.6 0.00 0.00 0.00 71 1015.9
20260906001605 67 158 1.7 0.0 0.00 0.00 0.00 70 1016.8
20260906001044 68 155 2.6 0.0 0.00 0.00 0.00 70 1016.8
20260906001005 68 148 1.7 2.6 0.00 0.00 0.00 70 1015.9
20260906000128 68 136 2.6 0.0 0.00 0.00 0.00 70 1016.7
20260906000028 69 131 2.6 0.0 0.00 0.00 0.00 69 1016.9
20260906000004 69 131 1.7 2.6 0.00 0.00 0.00 69 1015.9
20260905235544 69 126 2.6 0.0 0.00 0.00 0.00 67 1016.9
20260905235030 69 78 2.6 0.0 0.00 0.00 0.00 67 1016.9
20260905234527 70 52 1.7 0.0 0.00 0.00 0.00 67 1016.9
20260905234505 69 52 1.7 0.0 0.00 0.00 0.00 66 1016.8
20260905234036 70 32 0.9 0.0 0.00 0.00 0.00 63 1017.0
20260905234005 70 31 1.7 2.6 0.00 0.00 0.00 64 1015.9
20260905233546 70 139 0.0 0.0 0.00 0.00 0.00 64 1016.9
20260905233126 70 139 0.9 0.0 0.00 0.00 0.00 63 1016.9
20260905233034 71 139 0.9 0.0 0.00 0.00 0.00 63 1016.8
20260905232543 71 139 1.7 0.0 0.00 0.00 0.00 64 1016.7
20260905232004 71 209 1.7 2.6 0.00 0.00 0.00 61 1015.9
20260905231638 71 217 2.6 0.0 0.00 0.00 0.00 61 1016.7
20260905231548 71 219 2.6 0.0 0.00 0.00 0.00 61 1016.9
20260905231045 71 223 2.6 0.0 0.00 0.00 0.00 61 1017.0
20260905231004 71 218 2.6 4.3 0.00 0.00 0.00 61 1015.9
20260905230028 71 227 3.5 0.0 0.00 0.00 0.00 62 1017.1
20260905230005 71 215 2.6 5.2 0.00 0.00 0.00 62 1015.9
20260905230002 70 221 3.5 0.0 0.00 0.00 0.00 62 1017.1
20260905225603 71 223 3.5 0.0 0.00 0.00 0.00 62 1017.2
20260905225005 71 227 3.5 5.2 0.00 0.00 0.00 62 1015.9
20260905224626 70 209 2.6 0.0 0.00 0.00 0.00 63 1016.9
20260905224527 71 213 2.6 0.0 0.00 0.00 0.00 63 1017.1
20260905224042 71 221 1.7 0.0 0.00 0.00 0.00 63 1017.0
20260905224006 71 228 1.7 2.6 0.00 0.00 0.00 63 1015.9
20260905223142 70 250 1.7 0.0 0.00 0.00 0.00 63 1017.2
20260905223048 71 242 1.7 0.0 0.00 0.00 0.00 63 1017.3
20260905223005 71 242 1.7 2.6 0.00 0.00 0.00 63 1015.9
20260905222544 71 243 2.6 0.0 0.00 0.00 0.00 63 1017.2
20260905222005 71 222 2.6 2.6 0.00 0.00 0.00 63 1015.9
20260905221529 71 234 1.7 0.0 0.00 0.00 0.00 64 1017.1
20260905221509 71 234 1.7 0.0 0.00 0.00 0.00 64 1017.0
20260905221106 71 234 1.7 0.0 0.00 0.00 0.00 64 1017.1
20260905221005 71 234 1.7 2.6 0.00 0.00 0.00 64 1015.9
20260905220125 70 239 3.5 0.0 0.00 0.00 0.00 65 1016.9
20260905215954 71 235 3.5 5.2 0.00 0.00 0.00 65 1015.9
20260905215525 71 224 3.5 0.0 0.00 0.00 0.00 64 1017.0
20260905214953 70 225 2.6 2.6 0.00 0.00 0.00 65 1015.9
20260905214614 70 227 2.6 0.0 0.00 0.00 0.00 67 1016.9
20260905214515 70 229 2.6 0.0 0.00 0.00 0.00 68 1017.0
20260905214032 70 265 2.6 0.0 0.00 0.00 0.00 68 1017.0
20260905213954 70 265 2.6 2.6 0.00 0.00 0.00 69 1015.9
20260905213126 69 254 1.7 0.0 0.00 0.00 0.00 68 1017.0
20260905213033 70 254 1.7 0.0 0.00 0.00 0.00 69 1017.0
20260905212954 70 254 0.9 2.6 0.00 0.00 0.00 69 1015.9
20260905211954 69 254 1.7 2.6 0.00 0.00 0.00 70 1015.9
20260905211551 69 255 0.9 0.0 0.00 0.00 0.00 70 1016.9
20260905211532 69 255 0.9 0.0 0.00 0.00 0.00 70 1017.1
20260905210954 69 86 0.0 0.9 0.00 0.00 0.00 72 1015.9
20260905210536 70 86 0.9 0.0 0.00 0.00 0.00 74 1017.2
20260905210049 70 86 0.9 0.0 0.00 0.00 0.00 74 1017.2
20260905210020 69 86 0.9 0.0 0.00 0.00 0.00 74 1017.1
20260905205527 70 85 0.9 0.0 0.00 0.00 0.00 74 1017.2
20260905205015 70 85 0.9 0.0 0.00 0.00 0.00 73 1017.1
20260905204955 70 85 0.0 2.6 0.00 0.00 0.00 73 1015.9
20260905204555 70 85 0.9 0.0 0.00 0.00 0.00 72 1016.7
20260905204512 70 85 0.9 0.0 0.00 0.00 0.00 72 1016.9
20260905204026 70 85 0.9 0.0 0.00 0.00 0.00 72 1017.1
20260905203954 70 85 0.9 1.7 0.00 0.00 0.00 72 1015.9
20260905203536 71 85 0.9 0.0 0.00 0.00 0.00 72 1017.0
20260905203048 70 85 0.9 0.0 0.00 0.00 0.00 72 1016.9
20260905203014 71 85 0.9 0.0 0.00 0.00 0.00 72 1017.1
20260905202955 71 85 0.9 1.7 0.00 0.00 0.00 72 1015.9
20260905202532 71 85 0.0 0.0 0.00 0.00 0.00 72 1016.9
20260905201954 71 84 0.0 2.6 0.00 0.00 0.00 72 1015.9
20260905201626 70 84 0.9 0.0 0.00 0.00 0.00 72 1016.9
20260905201033 71 98 0.9 0.0 0.00 0.00 0.00 73 1016.9
20260905200955 71 98 0.9 2.6 0.00 0.00 0.00 73 1015.9
20260905200121 71 98 2.6 0.0 0.00 0.00 0.00 74 1016.8
20260905200013 71 98 2.6 0.0 0.00 0.00 0.00 74 1016.9
20260905195954 71 98 1.7 2.6 0.00 0.00 0.00 74 1015.9
20260905195524 71 98 2.6 0.0 0.00 0.00 0.00 74 1017.0
20260905195016 72 98 2.6 0.0 0.00 0.00 0.00 73 1016.9
20260905194954 72 98 2.6 2.6 0.00 0.00 0.00 73 1015.9
20260905194623 72 98 2.6 0.0 0.00 0.00 0.00 72 1016.6
20260905194550 72 98 2.6 0.0 0.00 0.00 0.00 72 1016.9
20260905194043 73 98 1.7 0.0 0.00 0.00 0.00 71 1016.7
20260905193518 73 98 0.9 0.0 0.00 0.00 0.00 70 1016.7
20260905193044 73 98 1.7 0.0 0.00 0.00 0.00 68 1016.6
20260905192517 74 321 1.7 0.0 0.00 0.00 0.00 67 1016.6
20260905191955 74 319 1.7 2.6 0.00 0.00 0.00 67 1015.9
20260905191559 74 319 0.9 0.0 0.00 0.00 0.00 65 1016.5
20260905191534 75 319 0.9 0.0 0.00 0.00 0.00 65 1016.6
20260905191025 75 319 0.9 0.0 0.00 0.00 0.00 63 1016.6
20260905190954 75 319 0.9 1.7 0.00 0.00 0.00 63 1015.9
20260905190106 74 319 1.7 0.0 0.00 0.00 0.00 65 1016.5
20260905190042 75 319 1.7 0.0 0.00 0.00 0.00 65 1016.7
20260905185526 75 319 3.5 0.0 0.00 0.00 0.00 64 1016.6
20260905185035 75 304 4.3 0.0 0.00 0.00 0.00 66 1016.7
20260905184555 74 302 4.3 0.0 0.00 0.00 0.00 66 1016.5
20260905183955 75 303 4.3 4.3 0.00 0.00 0.00 66 1015.9
20260905183557 76 328 2.6 0.0 0.00 0.00 0.00 65 1016.5
20260905183045 75 338 2.6 0.0 0.00 0.00 0.00 64 1016.2
20260905183017 76 338 2.6 0.0 0.00 0.00 0.00 64 1016.3
20260905182954 76 340 1.7 5.2 0.00 0.00 0.00 64 1015.9
20260905182533 76 340 3.5 0.0 0.00 0.00 0.00 63 1016.4
20260905182024 77 350 2.6 0.0 0.00 0.00 0.00 63 1016.4
20260905181955 77 351 2.6 2.6 0.00 0.00 0.00 63 1015.9
20260905181538 77 323 2.6 0.0 0.00 0.00 0.00 62 1016.3
20260905181513 77 323 2.6 0.0 0.00 0.00 0.00 61 1016.2
20260905180954 78 316 1.7 5.2 0.00 0.00 0.00 61 1015.7
20260905180536 78 316 1.7 0.0 0.00 0.00 0.00 60 1016.1
20260905180046 78 267 0.9 0.0 0.00 0.00 0.00 58 1015.8
20260905180018 79 267 0.9 0.0 0.00 0.00 0.00 58 1016.0
20260905175513 79 49 0.9 0.0 0.00 0.00 0.00 56 1016.0
20260905174954 80 49 0.9 2.6 0.00 0.00 0.00 56 1015.5
20260905174605 80 49 1.7 0.0 0.00 0.00 0.00 55 1015.7
20260905174517 80 49 1.7 0.0 0.00 0.00 0.00 55 1015.8
20260905174029 81 28 1.7 0.0 0.00 0.00 0.00 54 1015.9
20260905173113 81 355 1.7 0.0 0.00 0.00 0.00 47 1015.8
20260905173016 82 355 1.7 0.0 0.00 0.00 0.00 48 1015.8
20260905172955 82 355 1.7 2.6 0.00 0.00 0.00 48 1015.4
20260905172548 83 181 1.7 0.0 0.00 0.00 0.00 45 1015.5
20260905172036 83 181 2.6 0.0 0.00 0.00 0.00 44 1015.7
20260905171954 83 181 2.6 4.3 0.00 0.00 0.00 43 1015.2
20260905171530 84 181 3.5 0.0 0.00 0.00 0.00 44 1015.5
20260905170537 86 180 2.6 0.0 0.00 0.00 0.00 42 1015.7
20260905170047 86 158 1.7 0.0 0.00 0.00 0.00 41 1015.5
20260905170010 86 157 1.7 0.0 0.00 0.00 0.00 40 1015.4
20260905165955 87 155 1.7 2.6 0.00 0.00 0.00 41 1015.1
20260905165102 88 97 1.7 0.0 0.00 0.00 0.00 38 1015.2
20260905164955 88 96 1.7 2.6 0.00 0.00 0.00 37 1015.0
20260905164612 88 96 1.7 0.0 0.00 0.00 0.00 40 1015.3
20260905164511 89 95 1.7 0.0 0.00 0.00 0.00 40 1015.4
20260905163955 90 96 1.7 2.6 0.00 0.00 0.00 41 1014.9
20260905163040 92 113 2.6 0.0 0.00 0.00 0.00 37 1015.3
20260905163007 92 113 2.6 0.0 0.00 0.00 0.00 37 1015.2
20260905162955 92 113 2.6 2.6 0.00 0.00 0.00 37 1014.8
20260905162523 93 107 1.7 0.0 0.00 0.00 0.00 36 1015.3
20260905162027 94 91 0.9 0.0 0.00 0.00 0.00 37 1015.3
20260905161955 94 91 1.7 2.6 0.00 0.00 0.00 36 1014.9
20260905161620 93 90 0.0 0.0 0.00 0.00 0.00 33 1015.2
20260905161534 94 90 0.0 0.0 0.00 0.00 0.00 34 1015.4
20260905160955 94 90 0.0 0.9 0.00 0.00 0.00 31 1015.1
20260905160538 94 90 0.9 0.0 0.00 0.00 0.00 29 1015.6
20260905160126 94 90 1.7 0.0 0.00 0.00 0.00 29 1015.3
20260905160045 94 90 1.7 0.0 0.00 0.00 0.00 30 1015.6
20260905155955 94 90 0.9 2.6 0.00 0.00 0.00 30 1015.0
20260905155034 94 90 1.7 0.0 0.00 0.00 0.00 29 1015.5
20260905154955 94 90 1.7 2.6 0.00 0.00 0.00 27 1015.1
20260905154501 94 90 1.7 0.0 0.00 0.00 0.00 28 1015.3
20260905154032 94 76 1.7 0.0 0.00 0.00 0.00 28 1015.6
20260905153956 94 74 2.6 2.6 0.00 0.00 0.00 28 1015.0
20260905153528 94 59 1.7 0.0 0.00 0.00 0.00 28 1015.3
20260905153108 94 43 1.7 0.0 0.00 0.00 0.00 27 1015.3
20260905153034 94 43 1.7 0.0 0.00 0.00 0.00 28 1015.4
20260905152956 94 43 1.7 2.6 0.00 0.00 0.00 28 1014.9
20260905152033 94 44 1.7 0.0 0.00 0.00 0.00 28 1015.6
20260905151957 94 44 1.7 2.6 0.00 0.00 0.00 28 1015.1
20260905151555 94 45 1.7 0.0 0.00 0.00 0.00 27 1015.5
20260905151509 94 45 1.7 0.0 0.00 0.00 0.00 26 1015.4
20260905150956 94 39 2.6 2.6 0.00 0.00 0.00 26 1015.1
20260905150538 94 67 1.7 0.0 0.00 0.00 0.00 26 1015.4
20260905150043 94 63 1.7 0.0 0.00 0.00 0.00 27 1015.5
20260905150004 94 60 1.7 0.0 0.00 0.00 0.00 27 1015.4
20260905145956 94 57 2.6 4.3 0.00 0.00 0.00 26 1015.0
20260905145519 94 71 1.7 0.0 0.00 0.00 0.00 26 1015.6
20260905145015 94 57 1.7 0.0 0.00 0.00 0.00 27 1015.6
20260905144955 94 51 1.7 4.3 0.00 0.00 0.00 27 1015.1
20260905144532 94 36 2.6 0.0 0.00 0.00 0.00 27 1015.5
20260905144507 94 36 2.6 0.0 0.00 0.00 0.00 27 1015.4
20260905144014 94 22 2.6 0.0 0.00 0.00 0.00 28 1015.5
20260905143955 94 15 4.3 4.3 0.00 0.00 0.00 28 1015.2
20260905143511 94 35 2.6 0.0 0.00 0.00 0.00 28 1015.6
20260905143040 94 9 3.5 0.0 0.00 0.00 0.00 25 1015.5
20260905143021 94 10 3.5 0.0 0.00 0.00 0.00 25 1015.6
20260905142955 94 7 2.6 7.8 0.00 0.00 0.00 25 1015.2
20260905142517 94 5 4.3 0.0 0.00 0.00 0.00 26 1015.7
20260905142026 95 28 3.5 0.0 0.00 0.00 0.00 27 1015.6
20260905141647 94 360 2.6 0.0 0.00 0.00 0.00 26 1015.6
20260905141543 95 30 2.6 0.0 0.00 0.00 0.00 25 1015.8
20260905141026 95 306 3.5 0.0 0.00 0.00 0.00 25 1015.8
20260905140543 95 333 4.3 0.0 0.00 0.00 0.00 25 1015.8
20260905140115 94 325 3.5 0.0 0.00 0.00 0.00 26 1015.7
20260905140017 95 334 3.5 0.0 0.00 0.00 0.00 25 1016.0
20260905135956 95 358 4.3 7.8 0.00 0.00 0.00 25 1015.4
20260905135532 95 329 2.6 0.0 0.00 0.00 0.00 27 1015.9
20260905135020 94 360 3.5 0.0 0.00 0.00 0.00 28 1016.0
20260905134623 94 13 3.5 0.0 0.00 0.00 0.00 28 1015.9
20260905134514 94 13 3.5 0.0 0.00 0.00 0.00 28 1016.0
20260905134021 94 341 3.5 0.0 0.00 0.00 0.00 29 1016.0
20260905133956 94 340 1.7 10.4 0.00 0.00 0.00 28 1015.6
20260905133514 95 5 4.3 0.0 0.00 0.00 0.00 28 1016.2
20260905133028 95 342 4.3 0.0 0.00 0.00 0.00 28 1016.3
20260905133001 94 340 4.3 0.0 0.00 0.00 0.00 28 1016.2
20260905132955 95 325 6.1 10.4 0.00 0.00 0.00 28 1015.8
20260905132517 95 334 3.5 0.0 0.00 0.00 0.00 28 1016.2
20260905132029 94 315 4.3 0.0 0.00 0.00 0.00 29 1016.2
20260905131532 94 327 3.5 0.0 0.00 0.00 0.00 29 1016.1
20260905131517 94 355 3.5 0.0 0.00 0.00 0.00 29 1016.3
20260905131031 94 355 3.5 0.0 0.00 0.00 0.00 29 1016.4
20260905130955 94 354 4.3 8.7 0.00 0.00 0.00 29 1015.9
20260905130526 94 325 3.5 0.0 0.00 0.00 0.00 30 1016.5
20260905130041 94 360 3.5 0.0 0.00 0.00 0.00 31 1016.4
20260905130015 94 355 3.5 0.0 0.00 0.00 0.00 31 1016.6
20260905125956 94 356 2.6 8.7 0.00 0.00 0.00 30 1016.2
20260905125527 95 319 4.3 0.0 0.00 0.00 0.00 30 1016.7
20260905125022 94 346 5.2 0.0 0.00 0.00 0.00 31 1016.7
20260905124955 94 276 5.2 8.7 0.00 0.00 0.00 30 1016.3
20260905124546 93 346 3.5 0.0 0.00 0.00 0.00 31 1016.6
20260905124530 94 311 3.5 0.0 0.00 0.00 0.00 31 1016.8
20260905124023 94 19 3.5 0.0 0.00 0.00 0.00 31 1016.8
20260905123956 94 33 1.7 10.4 0.00 0.00 0.00 31 1016.4
20260905123539 94 306 4.3 0.0 0.00 0.00 0.00 30 1016.9
20260905123056 93 285 4.3 0.0 0.00 0.00 0.00 30 1016.9
20260905123026 94 294 4.3 0.0 0.00 0.00 0.00 31 1017.0
20260905122955 94 314 7.0 10.4 0.00 0.00 0.00 31 1016.5
20260905122523 93 337 4.3 0.0 0.00 0.00 0.00 31 1017.2
20260905122011 93 44 3.5 0.0 0.00 0.00 0.00 30 1017.1
20260905121955 93 43 4.3 7.8 0.00 0.00 0.00 30 1016.8
20260905121606 93 26 2.6 0.0 0.00 0.00 0.00 29 1017.0
20260905121528 94 14 2.6 0.0 0.00 0.00 0.00 30 1017.3
20260905121044 93 232 2.6 0.0 0.00 0.00 0.00 32 1017.2
20260905120955 93 248 2.6 6.1 0.00 0.00 0.00 32 1016.7
20260905120513 93 212 2.6 0.0 0.00 0.00 0.00 32 1017.1
20260905120100 92 75 1.7 0.0 0.00 0.00 0.00 33 1017.1
20260905120030 93 78 1.7 0.0 0.00 0.00 0.00 32 1017.1
20260905115525 92 79 1.7 0.0 0.00 0.00 0.00 33 1017.4
20260905115013 93 326 2.6 0.0 0.00 0.00 0.00 33 1017.4
20260905114955 93 288 2.6 7.8 0.00 0.00 0.00 33 1017.0
20260905114612 92 311 4.3 0.0 0.00 0.00 0.00 33 1017.4
20260905114525 92 305 4.3 0.0 0.00 0.00 0.00 33 1017.4
20260905114014 92 360 5.2 0.0 0.00 0.00 0.00 35 1017.6
20260905113956 92 21 5.2 10.4 0.00 0.00 0.00 34 1016.9
20260905113530 92 34 4.3 0.0 0.00 0.00 0.00 34 1017.6
20260905113026 92 342 3.5 0.0 0.00 0.00 0.00 34 1017.6
20260905113003 92 42 3.5 0.0 0.00 0.00 0.00 34 1017.4
20260905112956 92 30 3.5 6.1 0.00 0.00 0.00 34 1017.1
20260905112517 92 74 3.5 0.0 0.00 0.00 0.00 34 1017.7
20260905112009 92 30 2.6 0.0 0.00 0.00 0.00 35 1017.6
20260905111956 91 70 2.6 7.0 0.00 0.00 0.00 34 1017.4
20260905111544 91 355 2.6 0.0 0.00 0.00 0.00 35 1017.5
20260905111525 92 333 2.6 0.0 0.00 0.00 0.00 35 1017.6
20260905111024 91 32 2.6 0.0 0.00 0.00 0.00 33 1017.8
20260905110955 91 49 0.9 7.8 0.00 0.00 0.00 33 1017.5
20260905110518 91 48 3.5 0.0 0.00 0.00 0.00 34 1017.8
20260905110105 91 21 3.5 0.0 0.00 0.00 0.00 35 1017.7
20260905110017 91 5 2.6 0.0 0.00 0.00 0.00 34 1017.8
20260905105510 91 24 2.6 0.0 0.00 0.00 0.00 34 1017.8
20260905105011 92 342 2.6 0.0 0.00 0.00 0.00 33 1017.9
20260905104956 92 347 3.5 5.2 0.00 0.00 0.00 33 1017.4
20260905104529 91 309 1.7 0.0 0.00 0.00 0.00 35 1017.9
20260905104508 90 309 1.7 0.0 0.00 0.00 0.00 35 1017.7
20260905104042 90 40 3.5 0.0 0.00 0.00 0.00 35 1017.9
20260905103956 90 53 1.7 7.0 0.00 0.00 0.00 35 1017.6
20260905103521 90 27 3.5 0.0 0.00 0.00 0.00 35 1017.9
20260905103038 90 26 2.6 0.0 0.00 0.00 0.00 35 1017.7
20260905103014 90 22 2.6 0.0 0.00 0.00 0.00 35 1017.9
20260905102955 90 27 3.5 6.1 0.00 0.00 0.00 35 1017.5
20260905102514 90 348 2.6 0.0 0.00 0.00 0.00 36 1018.1
20260905102033 90 328 1.7 0.0 0.00 0.00 0.00 36 1018.1
20260905101955 90 295 2.6 5.2 0.00 0.00 0.00 36 1017.8
20260905101602 89 208 1.7 0.0 0.00 0.00 0.00 37 1018.3
20260905101545 89 189 1.7 0.0 0.00 0.00 0.00 37 1018.3
20260905101023 89 76 2.6 0.0 0.00 0.00 0.00 36 1018.3
20260905100517 89 119 2.6 0.0 0.00 0.00 0.00 37 1018.5
20260905100111 88 62 3.5 0.0 0.00 0.00 0.00 37 1018.4
20260905100015 88 48 3.5 0.0 0.00 0.00 0.00 37 1018.4
20260905095955 88 23 2.6 7.0 0.00 0.00 0.00 37 1018.1
20260905095509 89 15 3.5 0.0 0.00 0.00 0.00 37 1018.6
20260905095010 89 325 3.5 0.0 0.00 0.00 0.00 37 1018.7
20260905094956 89 352 3.5 7.0 0.00 0.00 0.00 37 1018.3
20260905094632 88 31 2.6 0.0 0.00 0.00 0.00 38 1018.6
20260905094549 88 336 2.6 0.0 0.00 0.00 0.00 38 1018.7
20260905094050 88 19 1.7 0.0 0.00 0.00 0.00 38 1018.8
20260905093955 88 34 0.9 7.0 0.00 0.00 0.00 39 1018.4
20260905093546 87 348 3.5 0.0 0.00 0.00 0.00 38 1018.9
20260905093051 87 20 3.5 0.0 0.00 0.00 0.00 39 1018.8
20260905093036 87 22 3.5 0.0 0.00 0.00 0.00 39 1018.9
20260905092955 87 28 2.6 7.0 0.00 0.00 0.00 39 1018.5
20260905092513 87 351 2.6 0.0 0.00 0.00 0.00 41 1018.9
20260905092032 87 18 3.5 0.0 0.00 0.00 0.00 40 1019.0
20260905091955 87 26 2.6 6.1 0.00 0.00 0.00 41 1018.6
20260905091614 86 28 3.5 0.0 0.00 0.00 0.00 39 1019.1
20260905091525 87 13 3.5 0.0 0.00 0.00 0.00 40 1019.1
20260905091026 86 325 2.6 0.0 0.00 0.00 0.00 40 1019.2
20260905090955 86 5 2.6 7.0 0.00 0.00 0.00 38 1018.8
20260905090514 86 333 2.6 0.0 0.00 0.00 0.00 44 1019.1
20260905090113 85 355 2.6 0.0 0.00 0.00 0.00 43 1019.1
20260905090013 86 26 3.5 0.0 0.00 0.00 0.00 44 1019.2
20260905085521 86 34 2.6 0.0 0.00 0.00 0.00 45 1019.2
20260905085017 86 18 2.6 0.0 0.00 0.00 0.00 45 1019.1
20260905084534 85 316 3.5 0.0 0.00 0.00 0.00 44 1019.2
20260905084510 86 312 3.5 0.0 0.00 0.00 0.00 44 1019.3
20260905084010 85 342 2.6 0.0 0.00 0.00 0.00 45 1019.2
20260905083956 85 356 3.5 6.1 0.00 0.00 0.00 46 1018.9
20260905083530 84 286 2.6 0.0 0.00 0.00 0.00 46 1019.3
20260905083056 84 252 2.6 0.0 0.00 0.00 0.00 46 1019.2
20260905083020 84 254 2.6 0.0 0.00 0.00 0.00 46 1019.4
20260905082956 84 274 1.7 5.2 0.00 0.00 0.00 46 1019.0
20260905082519 84 24 2.6 0.0 0.00 0.00 0.00 46 1019.6
20260905082057 83 285 1.7 0.0 0.00 0.00 0.00 47 1019.6
20260905081955 83 300 2.6 4.3 0.00 0.00 0.00 48 1019.1
20260905081557 82 291 1.7 0.0 0.00 0.00 0.00 47 1019.3
20260905081527 82 298 1.7 0.0 0.00 0.00 0.00 47 1019.5
20260905081025 82 331 2.6 0.0 0.00 0.00 0.00 48 1019.6
20260905080956 82 331 2.6 5.2 0.00 0.00 0.00 47 1019.1
20260905080516 82 18 2.6 0.0 0.00 0.00 0.00 48 1019.6
20260905080119 82 339 2.6 0.0 0.00 0.00 0.00 47 1019.3
20260905080012 82 286 2.6 0.0 0.00 0.00 0.00 47 1019.3
20260905075523 82 285 2.6 0.0 0.00 0.00 0.00 46 1019.4
20260905075022 81 329 1.7 0.0 0.00 0.00 0.00 48 1019.4
20260905074956 81 346 2.6 5.2 0.00 0.00 0.00 49 1019.0
20260905074637 80 23 1.7 0.0 0.00 0.00 0.00 50 1019.2
20260905074540 81 349 1.7 0.0 0.00 0.00 0.00 49 1019.4
20260905074011 80 331 1.7 0.0 0.00 0.00 0.00 51 1019.5
20260905073956 80 331 0.9 4.3 0.00 0.00 0.00 50 1019.0
20260905073529 80 325 0.9 0.0 0.00 0.00 0.00 50 1019.6
20260905073036 79 302 0.9 0.0 0.00 0.00 0.00 53 1019.3
20260905073019 79 302 0.9 0.0 0.00 0.00 0.00 53 1019.5
20260905072956 79 302 0.9 2.6 0.00 0.00 0.00 53 1018.9
20260905072517 79 308 1.7 0.0 0.00 0.00 0.00 54 1019.5
20260905072035 78 227 1.7 0.0 0.00 0.00 0.00 54 1019.4
20260905071955 78 256 1.7 5.2 0.00 0.00 0.00 54 1019.0
20260905071655 77 294 1.7 0.0 0.00 0.00 0.00 57 1019.4
20260905071613 78 333 1.7 0.0 0.00 0.00 0.00 56 1019.5
20260905071018 78 336 1.7 0.0 0.00 0.00 0.00 57 1019.5
20260905070956 77 335 1.7 4.3 0.00 0.00 0.00 56 1019.1
20260905070536 77 296 1.7 0.0 0.00 0.00 0.00 56 1019.5
20260905070114 76 340 1.7 0.0 0.00 0.00 0.00 59 1019.3
20260905070014 77 343 1.7 0.0 0.00 0.00 0.00 59 1019.6
20260905065956 77 344 1.7 4.3 0.00 0.00 0.00 59 1019.1
20260905065533 77 317 2.6 0.0 0.00 0.00 0.00 58 1019.5
20260905065022 76 299 2.6 0.0 0.00 0.00 0.00 59 1019.5
20260905064956 76 299 2.6 4.3 0.00 0.00 0.00 59 1019.1
20260905064526 75 304 1.7 0.0 0.00 0.00 0.00 60 1019.4
20260905064513 76 306 1.7 0.0 0.00 0.00 0.00 63 1019.6